SA7AHC Weather Reports


time (UTC)temp
C
wind
direction
speed
KPH
gust
KPH
rain 1hr
cm
rain 24hr
cm
rain mn
cm
humidity
%
barometer
mb
20260506124539 12 78 6.4 12.9 0.00 0.00 0.00 39 1012.9
20260506123536 12 97 3.2 12.9 0.00 0.00 0.00 41 1012.8
20260506122535 12 126 4.8 9.7 0.00 0.00 0.00 42 1012.8
20260506121534 13 69 8.0 19.3 0.00 0.00 0.00 42 1012.9
20260506120534 13 84 6.4 11.3 0.00 0.00 0.00 42 1013.0
20260506115537 12 145 6.4 12.9 0.00 0.00 0.00 43 1013.0
20260506114536 12 90 6.4 14.5 0.00 0.00 0.00 42 1012.9
20260506113524 12 125 4.8 12.9 0.00 0.00 0.00 43 1013.0
20260506112520 12 87 6.4 16.1 0.00 0.00 0.00 41 1013.0
20260506111522 12 74 4.8 16.1 0.00 0.00 0.00 43 1013.1
20260506110532 12 88 6.4 14.5 0.00 0.00 0.00 41 1013.1
20260506105512 12 140 3.2 16.1 0.00 0.00 0.00 42 1013.1
20260506104513 12 76 6.4 14.5 0.00 0.00 0.00 39 1013.2
20260506103512 12 71 4.8 16.1 0.00 0.00 0.00 43 1013.4
20260506102508 11 98 6.4 17.7 0.00 0.00 0.00 44 1013.3
20260506101513 11 80 8.0 16.1 0.00 0.00 0.00 44 1013.2
20260506100505 11 95 6.4 12.9 0.00 0.00 0.00 43 1013.2
20260506095508 11 78 6.4 19.3 0.00 0.00 0.00 45 1013.2
20260506094507 11 129 6.4 12.9 0.00 0.00 0.00 42 1013.1
20260506093507 11 111 8.0 16.1 0.00 0.00 0.00 42 1013.0
20260506092507 11 75 9.7 19.3 0.00 0.00 0.00 45 1013.0
20260506091509 11 76 6.4 12.9 0.00 0.00 0.00 45 1013.2
20260506090507 11 78 9.7 16.1 0.00 0.00 0.00 44 1013.3
20260506085508 11 99 4.8 12.9 0.00 0.00 0.00 43 1013.3
20260506084507 11 90 6.4 16.1 0.00 0.00 0.00 41 1013.3
20260506083506 11 73 9.7 19.3 0.00 0.00 0.00 42 1013.3
20260506082506 10 92 9.7 24.1 0.00 0.00 0.00 44 1013.2
20260506081506 10 70 9.7 19.3 0.00 0.00 0.00 43 1013.0
20260506080506 10 87 8.0 17.7 0.00 0.00 0.00 42 1013.1
20260506073507 9 73 8.0 14.5 0.00 0.00 0.00 42 1013.1
20260506072500 8 92 9.7 24.1 0.00 0.00 0.00 42 1013.1
20260506071458 8 101 9.7 20.9 0.00 0.00 0.00 44 1013.0
20260506070455 8 78 9.7 20.9 0.00 0.00 0.00 43 1013.0
20260506062449 7 76 8.0 17.7 0.00 0.00 0.00 45 1012.9
20260506061449 6 74 9.7 17.7 0.00 0.00 0.00 44 1012.7
20260506060454 6 75 11.3 25.7 0.00 0.00 0.00 43 1012.8
20260506050437 5 71 11.3 16.1 0.00 0.00 0.00 56 1012.3
20260506044435 4 80 9.7 17.7 0.00 0.00 0.00 63 1012.2
20260506043435 3 77 9.7 16.1 0.00 0.00 0.00 65 1012.2
20260506041435 2 79 8.0 14.5 0.00 0.00 0.00 70 1012.1
20260506040437 2 78 8.0 11.3 0.00 0.00 0.00 72 1011.9
20260506035439 1 78 8.0 11.3 0.00 0.00 0.00 73 1011.9
20260506034438 1 76 8.0 11.3 0.00 0.00 0.00 73 1011.8
20260506033437 0 73 8.0 11.3 0.00 0.00 0.00 73 1011.9
20260506032432 0 75 8.0 9.7 0.00 0.00 0.00 74 1011.8
20260506031428 0 76 8.0 9.7 0.00 0.00 0.00 76 1011.8
20260506030421 0 71 6.4 8.0 0.00 0.00 0.00 75 1011.8
20260506025416 0 69 6.4 8.0 0.00 0.00 0.00 72 1011.8
20260506024427 0 65 4.8 8.0 0.00 0.00 0.00 71 1011.8
20260506023405 0 62 3.2 6.4 0.00 0.00 0.00 72 1011.9
20260506022406 0 62 4.8 6.4 0.00 0.00 0.00 73 1012.0
20260506021406 0 62 1.6 6.4 0.00 0.00 0.00 72 1011.9
20260506020412 0 61 4.8 8.0 0.00 0.00 0.00 71 1011.9
20260506015406 1 58 3.2 6.4 0.00 0.00 0.00 71 1011.9
20260506014409 1 57 3.2 6.4 0.00 0.00 0.00 71 1011.9
20260506013404 1 57 4.8 8.0 0.00 0.00 0.00 71 1011.7
20260506012407 1 47 1.6 8.0 0.00 0.00 0.00 75 1011.7
20260506011402 1 44 1.6 4.8 0.00 0.00 0.00 73 1011.4
20260506010352 0 44 3.2 6.4 0.00 0.00 0.00 77 1011.5
20260506005348 0 36 1.6 6.4 0.00 0.00 0.00 79 1011.5
20260506004342 0 30 1.6 6.4 0.00 0.00 0.00 79 1011.4
20260506003336 1 337 0.0 0.0 0.00 0.00 0.00 78 1011.4
20260506002336 1 337 0.0 0.0 0.00 0.00 0.00 76 1011.4
20260506000339 0 337 0.0 0.0 0.00 0.00 0.00 80 1011.3
20260505235335 1 337 0.0 0.0 0.00 0.00 0.00 79 1011.3
20260505234333 1 337 0.0 0.0 0.00 0.00 0.00 77 1011.4
20260505233335 1 337 0.0 0.0 0.00 0.00 0.00 75 1011.5
20260505232338 1 337 0.0 0.0 0.00 0.00 0.00 71 1011.5
20260505231338 2 337 0.0 0.0 0.00 0.00 0.00 66 1011.5
20260505230345 2 337 0.0 0.0 0.00 0.00 0.00 67 1011.5
20260505225337 2 337 0.0 0.0 0.00 0.00 0.00 70 1011.6
20260505224332 2 337 0.0 0.0 0.00 0.00 0.00 70 1011.6
20260505223334 2 337 0.0 0.0 0.00 0.00 0.00 66 1011.5
20260505222334 3 337 0.0 0.0 0.00 0.00 0.00 64 1011.5
20260505221331 3 337 0.0 0.0 0.00 0.00 0.00 65 1011.6
20260505220336 3 336 0.0 0.0 0.00 0.00 0.00 62 1011.6
20260505215329 4 336 0.0 3.2 0.00 0.00 0.00 62 1011.6
20260505214314 5 336 1.6 8.0 0.00 0.00 0.00 56 1011.7
20260505213307 5 331 1.6 3.2 0.00 0.00 0.00 53 1011.6
20260505212306 4 331 1.6 3.2 0.00 0.00 0.00 56 1011.6
20260505211307 3 321 1.6 3.2 0.00 0.00 0.00 63 1011.3
20260505210304 3 321 1.6 3.2 0.00 0.00 0.00 65 1011.3
20260505205313 4 321 0.0 1.6 0.00 0.00 0.00 66 1011.3
20260505204310 4 321 0.0 0.0 0.00 0.00 0.00 62 1011.2
20260505203307 4 321 0.0 3.2 0.00 0.00 0.00 62 1011.3
20260505202307 4 301 0.0 3.2 0.00 0.00 0.00 59 1011.3
20260505201303 5 288 0.0 1.6 0.00 0.00 0.00 58 1011.2
20260505200253 5 288 0.0 1.6 0.00 0.00 0.00 53 1011.2
20260505195246 6 288 0.0 0.0 0.00 0.00 0.00 49 1010.8
20260505194242 6 288 0.0 1.6 0.00 0.00 0.00 49 1010.9
20260505193235 7 288 1.6 3.2 0.00 0.00 0.00 46 1010.9
20260505192232 7 288 1.6 3.2 0.00 0.00 0.00 44 1010.9
20260505191232 8 288 1.6 3.2 0.00 0.00 0.00 43 1011.0
20260505190234 8 287 1.6 4.8 0.00 0.00 0.00 39 1010.8
20260505185232 8 287 1.6 4.8 0.00 0.00 0.00 46 1010.6
20260505184234 8 285 1.6 3.2 0.00 0.00 0.00 47 1010.6
20260505183232 8 285 0.0 3.2 0.00 0.00 0.00 48 1010.5
20260505182234 10 285 0.0 3.2 0.00 0.00 0.00 42 1010.4
20260505181233 10 285 1.6 3.2 0.00 0.00 0.00 37 1010.5
20260505180227 11 285 1.6 6.4 0.00 0.00 0.00 34 1010.6
20260505175221 11 249 1.6 6.4 0.00 0.00 0.00 31 1010.3
20260505174209 12 258 3.2 9.7 0.00 0.00 0.00 29 1010.3
20260505173210 12 296 1.6 3.2 0.00 0.00 0.00 28 1010.4
20260505172208 12 295 1.6 6.4 0.00 0.00 0.00 28 1010.4
20260505171205 12 314 3.2 11.3 0.00 0.00 0.00 26 1010.4
20260505165205 13 213 4.8 14.5 0.00 0.00 0.00 25 1010.4
20260505164208 13 244 6.4 14.5 0.00 0.00 0.00 26 1010.4
20260505163207 13 335 4.8 11.3 0.00 0.00 0.00 25 1010.4
20260505162206 13 269 4.8 12.9 0.00 0.00 0.00 27 1010.3
20260505161207 14 348 0.0 8.0 0.00 0.00 0.00 25 1010.4
20260505160201 13 80 3.2 9.7 0.00 0.00 0.00 24 1010.3
20260505153200 14 318 4.8 11.3 0.00 0.00 0.00 24 1010.5
20260505152154 14 331 4.8 14.5 0.00 0.00 0.00 25 1010.5
20260505151152 15 0 3.2 8.0 0.00 0.00 0.00 30 1010.5
20260505150157 13 255 6.4 14.5 0.00 0.00 0.00 25 1010.5
20260505140138 15 339 3.2 11.3 0.00 0.00 0.00 28 1010.7
20260505130134 13 275 6.4 14.5 0.00 0.00 0.00 35 1010.7